This is the latest recevied weather packets stored in our database for station/object DB0ADS-6. If no packets are shown the sender has not sent any weather packets the latest 1 day(s).
| Time | Temp. | Humidity | Pressure | Rain* | Wind** | Luminosity | Snow |
|---|---|---|---|---|---|---|---|
| 1777968360 | 18.89° C | 60% | 1007 hPa | 0 mm | 0.89 m/s, 30° | - | - |
| 1777968058 | 19.44° C | 60% | 1007 hPa | 0 mm | 0 m/s | - | - |
| 1777967755 | 19.44° C | 58% | 1007 hPa | 0 mm | 0 m/s | - | - |
| 1777967454 | 18.89° C | 60% | 1007.1 hPa | 0 mm | 0.45 m/s, 324° | - | - |
| 1777967152 | 18.89° C | 62% | 1007.2 hPa | 0 mm | 0 m/s | - | - |
| 1777966850 | 18.33° C | 64% | 1007.2 hPa | 0 mm | 0.45 m/s, 324° | - | - |
| 1777966569 | 17.78° C | 66% | 1007.3 hPa | 0 mm | 0.45 m/s, 338° | - | - |
| 1777966247 | 17.22° C | 68% | 1007.3 hPa | 0 mm | 0.45 m/s, 338° | - | - |
| 1777965945 | 16.67° C | 69% | 1007.4 hPa | 0 mm | 0.45 m/s, 338° | - | - |
| 1777965643 | 16.11° C | 71% | 1007.4 hPa | 0 mm | 0.45 m/s, 338° | - | - |
| 1777965341 | 16.11° C | 73% | 1007.5 hPa | 0 mm | 0.45 m/s, 338° | - | - |
| 1777965040 | 15.56° C | 74% | 1007.5 hPa | 0 mm | 0.45 m/s, 318° | - | - |
| 1777964738 | 15.56° C | 73% | 1007.5 hPa | 0 mm | 0.45 m/s, 338° | - | - |
| 1777964436 | 15.56° C | 72% | 1007.4 hPa | 0 mm | 0.89 m/s, 326° | - | - |
| 1777964134 | 15.56° C | 72% | 1007.5 hPa | 0 mm | 0.45 m/s, 315° | - | - |
| 1777963833 | 15.56° C | 73% | 1007.5 hPa | 0 mm | 0.45 m/s, 329° | - | - |
| 1777963531 | 15.56° C | 73% | 1007.5 hPa | 0 mm | 0 m/s | - | - |
| 1777962625 | 15° C | 75% | 1007.5 hPa | 0 mm | 0 m/s | - | - |
| 1777962324 | 15° C | 75% | 1007.6 hPa | 0 mm | 0 m/s | - | - |
| 1777961720 | 14.44° C | 77% | 1007.5 hPa | 0 mm | 0 m/s | - | - |
| 1777961418 | 14.44° C | 77% | 1007.4 hPa | 0 mm | 0 m/s | - | - |
| 1777960573 | 13.89° C | 78% | 1007.5 hPa | 0 mm | 0 m/s | - | - |
| 1777960272 | 13.89° C | 79% | 1007.5 hPa | 0 mm | 0.45 m/s, 338° | - | - |
| 1777959973 | 13.89° C | 79% | 1007.5 hPa | 0 mm | 0.89 m/s, 356° | - | - |
| 1777959688 | 13.89° C | 78% | 1007.4 hPa | 0 mm | 0.45 m/s, 23° | - | - |
* Rain latest hour (hover to see other rain measurements)
** Current wind speed in m/s (hover to see current wind gust speed)